Showing default

QIANFAN-33, 61566

Orbit data source: Space-Track

QIANFAN-33, 61566 is a Chinese payload satellite in LEO that was launched on Tue, 15 Oct 2024 UTC via a CHANG ZHENG 6A launch vehicle from the Taiyaun Space Center, China (TSC). Payloads include a variety of satellites, spacecraft, and rockets equipped with specific instruments for various scientific and technological missions. These include communications satellites like Starlink; space stations such as the ISS; scientific satellites like the Hubble; Earth observation satellites from companies like Planet Labs, Umbra, and HawkEye 360; GPS; miniature CubeSats for education and research; and military/defense satellites.

Loading next visibility...
QIANFAN-33 details
Identifier
61566, 2024-185Q
Orbit
LEO
Last TLE update11 hours ago
Origin
Flag of CNYUANX (CN / PRC)
ManufacturerGESIH/SECM
MissionOperational Commercial Communications
Bus & MotorQIANFAN, Unknown motor
Mass300 kg wet, ~300 kg dry
Launch date (UTC)
2024-10-15 (4 months ago)
Launch vehicle
CHANG ZHENG 6A
Launch site
Taiyaun Space Center, China (TSC)
Object type
Payload
Rocket body
Debris
Shape & HBRBox + 1 Pan, 10 m
Radar Cross Section13.200 m², Large (>1 m²)

Expand to show TLE details & history

TLE from 11 hours ago
0 QIANFAN-33
1 61566U 24185Q   25035.81790234  .00000894  00000-0  52563-3 0  9998
2 61566  88.9876 113.4308 0006455 207.2219 152.8626 14.07193354 25762
Epoch: 2025-02-04T19:37Z
Definitive object data (Epoch: 2025-02-04T19:37:46.762Z)
Latitude-0.00005°
Longitude43.76822°
Altitude876.191 km
Speed7.412 km/s
True Right ascension07h 33m 43s
True Declination0° 00' 00"
Sunlit
Object was in full shadow at TLE epoch
Visualization TLE readout
Latitude-41.24011°
Longitude-135.40164°
Altitude880.37 km
Speed7.413 km/s
Apparent Right ascension20h 14m 55s
Apparent Declination-40° 52' 39"
Sunlit
Object is in daylight
Visualization observer readout
Local Sidereal Time08:57:13
Azimuth100.22° ESE
Elevation-81.893°
Doppler factor1
Orbital elements
Apogee altitude870.638 km
Perigee altitude861.286 km
Semi-major axis7,244.099 km
Eccentricity0.0006455
Inclination88.9876°
RAAN113.4308°
Arg. of periapsis207.2219°
True anomaly152.89631°
Mean anomaly152.8626°
Eccentric anomaly152.87946°
Mean motion3.52019 °/min
BSTAR0.00052563
Orbital period102.27 mins
Loading maneuver chart data...
Loading historical data...
Loading historical data...
Loading historical data...
Loading historical data...
Loading historical data...
Loading historical data...
Loading historical data...

QIANFAN-33 Visibility forecast

Observer location: undefined°, undefined

Span
Click to sort rows by Start time (UTC) header in descending order
Start Az.
Max El. time (UTC)
Max El. Az.
Max El.
End time (UTC)
End Az.
9 mins2025-02-05 16:41:58.717Z20.713° NNE2025-02-05 16:45:58.717Z76.666° E32.513°2025-02-05 16:50:58.717Z151.785° SSE
7 mins2025-02-05 18:24:58.717Z327.006° NNW2025-02-05 18:27:58.717Z288.234° WNW22.984°2025-02-05 18:31:58.717Z234.73° WSW
6 mins2025-02-06 04:12:58.717Z104.634° ESE2025-02-06 04:14:58.717Z79.031° E18.559°2025-02-06 04:18:58.717Z32.766° NE
9 mins2025-02-06 05:52:58.717Z201.215° SSW2025-02-06 05:56:58.717Z270.183° WNW38.484°2025-02-06 06:01:58.717Z347.401° N
|